�N����,����,�g�[���i���ԁj���x,�g�[�����x,��g�[���i���ցj���x,����
 2003/04/01, 0:00,18.3,66,17.3,14.8
 2003/04/01, 0:15,18.2,66,17.3,14.9
 2003/04/01, 0:30,18.1,67,17.5,15.1
 2003/04/01, 0:45,18,66,17.4,14.4
 2003/04/01, 1:00,17.9,66,17.3,14.5
 2003/04/01, 1:15,17.8,66,17.3,14.6
 2003/04/01, 1:30,17.6,66,17.3,14.7
 2003/04/01, 1:45,17.5,66,17.2,14.9
 2003/04/01, 2:00,17.5,67,17.2,14.9
 2003/04/01, 2:15,17.5,69,17.2,15.1
 2003/04/01, 2:30,17.6,71,17.2,15.2
 2003/04/01, 2:45,17.5,70,17.1,15.4
 2003/04/01, 3:00,17.8,69,17.1,15.5
 2003/04/01, 3:15,18.1,70.5,17.1,15.6
 2003/04/01, 3:30,18.5,69,17.1,15.7
 2003/04/01, 3:45,18.8,67.5,17,15.9
 2003/04/01, 4:00,19,66,17,15.9
 2003/04/01, 4:15,19.1,65.5,17,16
 2003/04/01, 4:30,19.5,64,17,16.2
 2003/04/01, 4:45,19.8,62.5,16.9,16.2
 2003/04/01, 5:00,20.1,61,16.9,16.4
 2003/04/01, 5:15,20.4,58.5,16.9,16.5
 2003/04/01, 5:30,20.6,58,16.9,16.5
 2003/04/01, 5:45,20.8,57,16.8,16.6
 2003/04/01, 6:00,20.9,57,16.8,16.7
 2003/04/01, 6:15,20.9,57,16.8,16.8
 2003/04/01, 6:30,21,57,16.8,16
 2003/04/01, 6:45,21,56,16.8,16
 2003/04/01, 7:00,21.1,55,16.8,16.2
 2003/04/01, 7:15,21.1,55.5,16.8,14.4
 2003/04/01, 7:30,21.2,56,16.8,14.4
 2003/04/01, 7:45,21.4,56,16.9,12.6
 2003/04/01, 8:00,21.4,56,16.9,12.7
 2003/04/01, 8:15,21.5,56,17,12.9
 2003/04/01, 8:30,21.6,55,17,13
 2003/04/01, 8:45,21.8,54.5,17,13.1
 2003/04/01, 9:00,21.9,55,17.1,13.3
 2003/04/01, 9:15,22,55,17.1,13.4
 2003/04/01, 9:30,22.1,54,17.1,13.6
 2003/04/01, 9:45,22,36.5,17.1,13.8
 2003/04/01,10:00,21.7,31,17.2,13.9
 2003/04/01,10:15,21.8,32.5,17.2,14
 2003/04/01,10:30,21.6,35,17.2,14.1
 2003/04/01,10:45,21.6,39.5,17.2,14.2
 2003/04/01,11:00,21.9,48,17.3,14.4
 2003/04/01,11:15,22,45,17.3,14.4
 2003/04/01,11:30,22.1,44,17.3,15
 2003/04/01,11:45,21.9,45,17.2,15.1
 2003/04/01,12:00,21.9,50,17.2,15.6
 2003/04/01,12:15,22.1,52,17.2,15.7
 2003/04/01,12:30,22.2,53,17.2,15.8
 2003/04/01,12:45,22.1,54.5,17.2,15.9
 2003/04/01,13:00,22.1,55,17.2,16
 2003/04/01,13:15,22,54,17.2,16.1
 2003/04/01,13:30,21.9,52,17.3,16.2
 2003/04/01,13:45,22,55,17.4,16.3
 2003/04/01,14:00,21.7,55,17.4,16.4
 2003/04/01,14:15,22,56,17.5,16.5
 2003/04/01,14:30,21.8,54,17.5,16.6
 2003/04/01,14:45,21.6,53.5,17.6,16.7
 2003/04/01,15:00,21.5,53,17.6,16.8
 2003/04/01,15:15,21.4,52.5,17.6,16.9
 2003/04/01,15:30,21.2,53,17.6,17
 2003/04/01,15:45,21,52,17.7,17.1
 2003/04/01,16:00,21,53,17.7,17.2
 2003/04/01,16:15,20.8,52,17.7,17.2
 2003/04/01,16:30,20.7,52,17.7,17.3
 2003/04/01,16:45,20.5,53,17.8,16.5
 2003/04/01,17:00,20.3,53,17.8,16.6
 2003/04/01,17:15,20.4,53,17.7,16.8
 2003/04/01,17:30,20.1,53,17.7,16.8
 2003/04/01,17:45,20,53.5,17.6,17
 2003/04/01,18:00,20,56,17.6,17
 2003/04/01,18:15,19.5,51.5,17.6,16.4
 2003/04/01,18:30,18.4,50,17.6,16.5
 2003/04/01,18:45,18.5,49,17.5,16.5
 2003/04/01,19:00,18.9,49,17.5,16.7
 2003/04/01,19:15,19,49.5,17.4,16.8
 2003/04/01,19:30,19.2,48,17.4,15.7
 2003/04/01,19:45,19.9,49.5,17.4,15.7
 2003/04/01,20:00,20.4,54,17.4,15.9
 2003/04/01,20:15,20.7,54,17.4,15.9
 2003/04/01,20:30,20.9,54,17.4,16.1
 2003/04/01,20:45,21.2,53.5,17.4,16.2
 2003/04/01,21:00,21.6,53,17.4,16.3
 2003/04/01,21:15,21.9,53,17.4,16.5
 2003/04/01,21:30,22,53,17.5,16.5
 2003/04/01,21:45,22.2,53,17.5,16.6
 2003/04/01,22:00,22.2,53,17.5,16.7
 2003/04/01,22:15,22.4,53,17.5,16.9
 2003/04/01,22:30,22.5,52,17.5,14.1
 2003/04/01,22:45,22.5,53,17.5,14
 2003/04/01,23:00,22.6,53,17.5,14.2
 2003/04/01,23:15,22.6,53,17.6,14.3
 2003/04/01,23:30,22.8,53,17.6,14.4
 2003/04/01,23:45,22.8,53,17.6,14.6
 2003/04/02, 0:00,22.9,53,17.6,14.7
 2003/04/02, 0:15,23,53.5,17.6,14.9
 2003/04/02, 0:30,23,52,17.6,14.9
 2003/04/02, 0:45,23,50.5,17.5,15.1
 2003/04/02, 1:00,23.2,50,17.5,15.2
 2003/04/02, 1:15,23.3,50.5,17.5,15.4
 2003/04/02, 1:30,23.5,49,17.5,15.5
 2003/04/02, 1:45,23.4,47.5,17.5,15.6
 2003/04/02, 2:00,23.3,45,17.4,15.7
 2003/04/02, 2:15,23.2,46.5,17.4,15.9
 2003/04/02, 2:30,23.3,49,17.4,16
 2003/04/02, 2:45,23.4,52.5,17.3,16
 2003/04/02, 3:00,23.6,54,17.3,16.2
 2003/04/02, 3:15,23.8,54.5,17.3,16.3
 2003/04/02, 3:30,23.9,56,17.2,16.4
 2003/04/02, 3:45,24,55.5,17.2,16.5
 2003/04/02, 4:00,24,56,17.2,16.6
 2003/04/02, 4:15,24,56,17.1,16.7
 2003/04/02, 4:30,23.9,55,17.1,16.8
 2003/04/02, 4:45,23.7,57,17.1,16.9
 2003/04/02, 5:00,23.7,57,17.1,17
 2003/04/02, 5:15,23.8,58,17,17
 2003/04/02, 5:30,23.9,59,17,17.2
 2003/04/02, 5:45,23.9,59,17,17.2
 2003/04/02, 6:00,23.6,59,16.9,17.3
 2003/04/02, 6:15,23.4,57.5,16.9,17.4
 2003/04/02, 6:30,23.3,57,16.9,17.5
 2003/04/02, 6:45,23,57,17,14.2
 2003/04/02, 7:00,22.9,57,17,14.3
 2003/04/02, 7:15,22.8,56.5,16.9,14.4
 2003/04/02, 7:30,22.6,56,16.9,13.9
 2003/04/02, 7:45,22.5,56.5,16.9,13.4
 2003/04/02, 8:00,22.3,57,16.9,12.7
 2003/04/02, 8:15,22.2,57,17,12.6
 2003/04/02, 8:30,22.1,57,17.1,12.7
 2003/04/02, 8:45,22,57,17.1,12.9
 2003/04/02, 9:00,21.8,57,17.2,13.1
 2003/04/02, 9:15,21.8,57,17.2,13.1
 2003/04/02, 9:30,21.6,57,17.2,13.3
 2003/04/02, 9:45,21.5,57.5,17.2,13.9
 2003/04/02,10:00,21.4,59,17.2,14.5
 2003/04/02,10:15,21.4,61,17.2,14.5
 2003/04/02,10:30,21.6,67,17.2,14.6
 2003/04/02,10:45,21.6,64.5,17.2,14.8
 2003/04/02,11:00,21.9,60,17.2,14.8
 2003/04/02,11:15,21.3,53.5,17.3,14.9
 2003/04/02,11:30,21.6,52,17.3,15
 2003/04/02,11:45,21.7,52.5,17.3,15.1
 2003/04/02,12:00,21.8,53,17.3,15.3
 2003/04/02,12:15,22,55.5,17.4,15.4
 2003/04/02,12:30,22.2,56,17.4,14.8
 2003/04/02,12:45,22.4,56.5,17.5,14.9
 2003/04/02,13:00,22.6,57,17.6,15
 2003/04/02,13:15,22.8,57,17.6,15.1
 2003/04/02,13:30,23,56,17.7,15.3
 2003/04/02,13:45,23.1,55.5,17.8,15.4
 2003/04/02,14:00,23.2,55,17.8,15.5
 2003/04/02,14:15,23.2,55.5,17.9,15.6
 2003/04/02,14:30,23.4,55,17.9,15.7
 2003/04/02,14:45,23.5,55,17.9,15.9
 2003/04/02,15:00,23.7,55,17.9,16
 2003/04/02,15:15,23.8,55,18,16
 2003/04/02,15:30,23.9,55,18,16.2
 2003/04/02,15:45,24,52,18,16.2
 2003/04/02,16:00,24.1,51,18,16.4
 2003/04/02,16:15,24.2,50.5,18,16.5
 2003/04/02,16:30,24.4,48,18,16.4
 2003/04/02,16:45,24.3,49.5,18,16.4
 2003/04/02,17:00,24.3,48,18,16.5
 2003/04/02,17:15,24.1,48,18,16.6
 2003/04/02,17:30,24,48,17.8,16.7
 2003/04/02,17:45,23.8,48,17.6,16.8
 2003/04/02,18:00,23.1,51,17.6,16.9
 2003/04/02,18:15,22.6,52,17.5,17
 2003/04/02,18:30,23.3,53,17.4,15.6
 2003/04/02,18:45,23.5,53.5,17.4,15.8
 2003/04/02,19:00,23.8,54,17.3,15.9
 2003/04/02,19:15,24,53.5,17.2,15.9
 2003/04/02,19:30,24.1,52,17.1,16.1
 2003/04/02,19:45,24.1,52.5,17.1,16.2
 2003/04/02,20:00,24.1,53,17.1,16.3
 2003/04/02,20:15,24.2,54,17,16.4
 2003/04/02,20:30,24.1,55,17,16.5
 2003/04/02,20:45,24,55.5,17,14.2
 2003/04/02,21:00,24,57,17,14.3
 2003/04/02,21:15,24,57.5,17,14.5
 2003/04/02,21:30,23.9,58,17,14.5
 2003/04/02,21:45,23.8,58.5,17,14.6
 2003/04/02,22:00,23.8,60,17,14.8
 2003/04/02,22:15,23.9,61.5,17,14.9
 2003/04/02,22:30,23.8,59,17,14.9
 2003/04/02,22:45,23.8,58.5,17,15.1
 2003/04/02,23:00,23.7,59,17.1,15.1
 2003/04/02,23:15,23.5,58,17,14.2
 2003/04/02,23:30,23.3,58,17,14.3
 2003/04/02,23:45,23.1,57.5,17,14.4
 2003/04/03, 0:00,23,57,17,14.5
 2003/04/03, 0:15,23,57.5,17.1,14.6
 2003/04/03, 0:30,22.9,58,17.1,14.8
 2003/04/03, 0:45,22.8,58,17.1,14.9
 2003/04/03, 1:00,22.7,57,17.1,15
 2003/04/03, 1:15,22.5,58,17.1,15.1
 2003/04/03, 1:30,22.5,58,17.1,15.2
 2003/04/03, 1:45,22.4,58,17,15.4
 2003/04/03, 2:00,22.3,58,17,15.5
 2003/04/03, 2:15,22.2,58,17,15.6
 2003/04/03, 2:30,22.1,58,16.9,15.7
 2003/04/03, 2:45,22.1,58,16.9,15.8
 2003/04/03, 3:00,22.1,58,16.8,15.9
 2003/04/03, 3:15,22.1,58.5,16.8,16
 2003/04/03, 3:30,22.2,59,16.7,16.1
 2003/04/03, 3:45,22.1,57.5,16.7,16.2
 2003/04/03, 4:00,22.3,55,16.6,16.3
 2003/04/03, 4:15,22.7,56,16.6,16.4
 2003/04/03, 4:30,22.7,58,16.6,16.5
 2003/04/03, 4:45,23.1,55.5,16.5,16.5
 2003/04/03, 5:00,23.6,55,16.5,16.7
 2003/04/03, 5:15,23.8,54,16.5,16.8
 2003/04/03, 5:30,23.7,54,16.4,16.8
 2003/04/03, 5:45,23.5,54.5,16.4,16.9
 2003/04/03, 6:00,23.4,55,16.3,17
 2003/04/03, 6:15,23.5,56.5,16.3,17
 2003/04/03, 6:30,23.8,57,16.2,16
 2003/04/03, 6:45,23.8,56,16.1,16.1
 2003/04/03, 7:00,24.1,57,16.1,16.2
 2003/04/03, 7:15,24.1,58.5,16.1,13.3
 2003/04/03, 7:30,24.3,60,16.2,13.4
 2003/04/03, 7:45,24.4,62.5,16.4,13.1
 2003/04/03, 8:00,24.6,64,16.4,13.2
 2003/04/03, 8:15,24.5,65,16.5,13.2
 2003/04/03, 8:30,24.3,66,16.6,13.4
 2003/04/03, 8:45,24.2,66.5,16.6,13.4
 2003/04/03, 9:00,24.2,66,16.8,13.6
 2003/04/03, 9:15,24,68,16.9,13.8
 2003/04/03, 9:30,23.9,69,17,13.8
 2003/04/03, 9:45,23.9,69,17,13.9
 2003/04/03,10:00,23.9,71,17.2,14.1
 2003/04/03,10:15,24.1,69,17.4,14.2
 2003/04/03,10:30,24.3,68,17.5,14.3
 2003/04/03,10:45,24.5,71,17.6,14.4
 2003/04/03,11:00,24.6,71,17.7,14.5
 2003/04/03,11:15,24.6,70.5,17.9,14.6
 2003/04/03,11:30,24.6,69,18,14.7
 2003/04/03,11:45,24.6,69,18.1,14.8
 2003/04/03,12:00,24.8,69,18.3,14.9
 2003/04/03,12:15,24.8,68.5,18.5,15.1
 2003/04/03,12:30,24.6,69,18.6,15.3
 2003/04/03,12:45,24.5,70.5,18.7,13.8
 2003/04/03,13:00,24.3,71,18.7,13.9
 2003/04/03,13:15,24.2,72,18.7,14.1
 2003/04/03,13:30,24,73,18.7,14.2
 2003/04/03,13:45,24,73,18.8,14.3
 2003/04/03,14:00,24,72,18.9,14.4
 2003/04/03,14:15,24,73.5,19,14.6
 2003/04/03,14:30,24,72,19,14.7
 2003/04/03,14:45,24,72.5,19.1,14.8
 2003/04/03,15:00,23.8,72,19.2,14.9
 2003/04/03,15:15,23.7,72,19.3,15.1
 2003/04/03,15:30,23.6,72,19.4,15.2
 2003/04/03,15:45,23.5,72,19.5,15.4
 2003/04/03,16:00,23.4,72,19.5,15.5
 2003/04/03,16:15,23.3,73,19.6,15.6
 2003/04/03,16:30,23.2,73,19.7,15.8
 2003/04/03,16:45,23.2,73,19.6,15.9
 2003/04/03,17:00,23.1,73,19.6,16
 2003/04/03,17:15,23,73,19.6,16.1
 2003/04/03,17:30,23,73,19.7,16.3
 2003/04/03,17:45,23,73.5,19.8,15.9
 2003/04/03,18:00,23,73,19.8,16
 2003/04/03,18:15,23,73.5,19.8,16.1
 2003/04/03,18:30,22.9,74,19.6,16.3
 2003/04/03,18:45,22.9,74,19.5,16.4
 2003/04/03,19:00,22.9,75,19.5,16.5
 2003/04/03,19:15,23,75,19.5,15.2
 2003/04/03,19:30,23.2,76,19.4,13.9
 2003/04/03,19:45,23.4,76,19.3,14
 2003/04/03,20:00,23.5,74,19.2,14
 2003/04/03,20:15,23.6,75.5,19.2,14.1
 2003/04/03,20:30,23.6,76,19.1,14.3
 2003/04/03,20:45,23.7,77,19,14.4
 2003/04/03,21:00,24,77,18.9,14.6
 2003/04/03,21:15,24.1,75.5,18.9,14.8
 2003/04/03,21:30,24.3,76,18.9,14.9
 2003/04/03,21:45,24.5,76.5,18.9,14.9
 2003/04/03,22:00,24.8,75,18.9,15.2
 2003/04/03,22:15,24.6,74.5,19,15.4
 2003/04/03,22:30,24.3,76,18.9,15.5
 2003/04/03,22:45,23.8,77,18.9,15.6
 2003/04/03,23:00,23.1,83,18.8,15.8
 2003/04/03,23:15,22.8,84.5,18.8,15.8
 2003/04/03,23:30,22.6,86,18.7,15.7
 2003/04/03,23:45,22.5,85,18.8,15.9
 2003/04/04, 0:00,22.4,85,18.7,15.9
 2003/04/04, 0:15,22.5,85,18.7,16
 2003/04/04, 0:30,22.5,86,18.7,16.2
 2003/04/04, 0:45,22.4,84.5,18.7,16.4
 2003/04/04, 1:00,22.2,83,18.7,15.8
 2003/04/04, 1:15,22.1,84,18.7,15.9
 2003/04/04, 1:30,22.4,84,18.7,16.1
 2003/04/04, 1:45,22.9,83.5,18.6,16.2
 2003/04/04, 2:00,23,83,18.6,16.3
 2003/04/04, 2:15,23,82.5,18.5,16.5
 2003/04/04, 2:30,23,82,18.5,16.6
 2003/04/04, 2:45,23,81.5,18.5,16.6
 2003/04/04, 3:00,23,81,18.4,16.8
 2003/04/04, 3:15,23,80,18.4,16.9
 2003/04/04, 3:30,23,79,18.3,17
 2003/04/04, 3:45,23,80,18.3,17.1
 2003/04/04, 4:00,23.3,79,18.2,17.2
 2003/04/04, 4:15,23.5,78.5,18.2,17.3
 2003/04/04, 4:30,23.5,78,18.2,17.4
 2003/04/04, 4:45,23.6,79,18.1,17.5
 2003/04/04, 5:00,23.7,79,18.1,17.6
 2003/04/04, 5:15,23.7,78.5,18,17.6
 2003/04/04, 5:30,23.7,79,18,17.7
 2003/04/04, 5:45,23.8,78.5,18,17.8
 2003/04/04, 6:00,23.8,79,17.9,17.9
 2003/04/04, 6:15,23.5,79,17.9,18
 2003/04/04, 6:30,23.3,79,17.8,18
 2003/04/04, 6:45,23.2,78.5,17.8,15.6
 2003/04/04, 7:00,23.1,79,17.8,14.4
 2003/04/04, 7:15,23,78,17.8,14.6
 2003/04/04, 7:30,23,78,17.8,14.7
 2003/04/04, 7:45,22.9,78,17.9,13.1
 2003/04/04, 8:00,22.8,78,18,13.1
 2003/04/04, 8:15,22.8,78,18.1,13.2
 2003/04/04, 8:30,22.7,78,18.2,13.4
 2003/04/04, 8:45,22.6,78,18.3,13.6
 2003/04/04, 9:00,22.6,78,18.3,13.7
 2003/04/04, 9:15,22.6,78,18.4,13.8
 2003/04/04, 9:30,22.6,77,18.4,13.9
 2003/04/04, 9:45,22.5,77,18.4,14.1
 2003/04/04,10:00,22.6,76,18.4,15.1
 2003/04/04,10:15,22.5,75,18.4,15.2
 2003/04/04,10:30,22.5,74,18.5,15.3
 2003/04/04,10:45,22.5,72.5,18.5,15.4
 2003/04/04,11:00,22.6,72,18.5,15.6
 2003/04/04,11:15,22.7,72,18.5,15.7
 2003/04/04,11:30,22.6,73,18.5,15.8
 2003/04/04,11:45,22.6,73.5,18.5,15.9
 2003/04/04,12:00,22.5,75,18.5,16
 2003/04/04,12:15,22.6,73.5,18.5,16.1
 2003/04/04,12:30,22.6,73,18.5,15.7
 2003/04/04,12:45,22.5,72,18.5,15.8
 2003/04/04,13:00,22.5,72,18.5,15.9
 2003/04/04,13:15,22.4,69.5,18.5,16
 2003/04/04,13:30,22.4,69,18.5,16.1
 2003/04/04,13:45,22.1,57,18.6,16.2
 2003/04/04,14:00,22,54,18.6,16.4
 2003/04/04,14:15,22,55.5,18.6,16.5
 2003/04/04,14:30,22.3,59,18.6,16.5
 2003/04/04,14:45,22.4,57.5,18.6,16.6
 2003/04/04,15:00,22.5,57,18.6,16.6
 2003/04/04,15:15,22.5,56.5,18.5,16.6
 2003/04/04,15:30,22.5,56,18.5,16.8
 2003/04/04,15:45,22.5,55,18.5,16.9
 2003/04/04,16:00,22.4,55,18.5,16.9
 2003/04/04,16:15,22.4,54,18.5,17
 2003/04/04,16:30,22.1,48,18.5,17.1
 2003/04/04,16:45,21,40,18.5,17.2
 2003/04/04,17:00,21.1,46,18.4,17.3
 2003/04/04,17:15,21.9,54.5,18.4,17.4
 2003/04/04,17:30,22.2,57,18.4,17.5
 2003/04/04,17:45,22.1,51.5,18.4,17.5
 2003/04/04,18:00,22.1,51,18.3,17.6
 2003/04/04,18:15,21.6,49,18.3,17.7
 2003/04/04,18:30,20.1,47,18.2,17.8
 2003/04/04,18:45,20.5,49,18.1,17.9
 2003/04/04,19:00,21.4,49,17.9,16.6
 2003/04/04,19:15,21.5,51,17.8,16.2
 2003/04/04,19:30,21.7,50,17.7,16.4
 2003/04/04,19:45,21.8,51,17.6,15.6
 2003/04/04,20:00,21.9,53,17.6,14.6
 2003/04/04,20:15,22,54.5,17.5,14.8
 2003/04/04,20:30,22,52,17.4,14.8
 2003/04/04,20:45,22,53.5,17.4,14.9
 2003/04/04,21:00,21.6,52,17.3,14.6
 2003/04/04,21:15,21.4,54.5,17.2,14.5
 2003/04/04,21:30,21.2,55,17.2,14.4
 2003/04/04,21:45,21.3,56.5,17.1,14.6
 2003/04/04,22:00,21.1,56,17,14.6
 2003/04/04,22:15,20.9,54.5,17,14.8
 2003/04/04,22:30,20.7,55,16.9,14.9
 2003/04/04,22:45,20.5,56,16.9,14.9
 2003/04/04,23:00,20.4,56,16.8,14.9
 2003/04/04,23:15,20.3,56,16.8,15.1
 2003/04/04,23:30,20.1,55,16.7,15.2
 2003/04/04,23:45,20,57,16.7,15.2
 2003/04/05, 0:00,19.9,57,16.7,15.4
 2003/04/05, 0:15,19.6,55.5,16.7,15.5
 2003/04/05, 0:30,19.4,56,16.7,15.6
 2003/04/05, 0:45,19.1,55,16.8,15.8
 2003/04/05, 1:00,19.1,56,16.7,15.8
 2003/04/05, 1:15,19,56,16.7,15.9
 2003/04/05, 1:30,18.9,57,16.6,13.9
 2003/04/05, 1:45,18.7,56.5,16.5,13.9
 2003/04/05, 2:00,18.5,60,16.5,14.6
 2003/04/05, 2:15,18.6,61,16.5,14.6
 2003/04/05, 2:30,18.9,67,16.4,14.8
 2003/04/05, 2:45,19,66,16.4,14.9
 2003/04/05, 3:00,19.1,64,16.3,15
 2003/04/05, 3:15,19.3,62,16.3,15.1
 2003/04/05, 3:30,19.2,56,16.2,15.2
 2003/04/05, 3:45,19.5,57,16.2,15.3
 2003/04/05, 4:00,19.6,54,16.1,15.4
 2003/04/05, 4:15,19.9,53,16,15.4
 2003/04/05, 4:30,20.1,53,16,15.6
 2003/04/05, 4:45,20.2,54,15.9,15.6
 2003/04/05, 5:00,20.4,53,15.8,15.8
 2003/04/05, 5:15,20.6,52.5,15.8,15.9
 2003/04/05, 5:30,20.8,52,15.7,15.9
 2003/04/05, 5:45,20.9,52,15.6,16
 2003/04/05, 6:00,21,52,15.6,16.1
 2003/04/05, 6:15,21,53,15.6,16.2
 2003/04/05, 6:30,21.1,53,15.5,16.3
 2003/04/05, 6:45,21.1,53,15.4,15.8
 2003/04/05, 7:00,21.2,53,15.4,14.1
 2003/04/05, 7:15,21.2,53,15.4,13.9
 2003/04/05, 7:30,21.4,53,15.5,13.6
 2003/04/05, 7:45,21.5,53,15.5,13.6
 2003/04/05, 8:00,21.6,52,15.5,13.5
 2003/04/05, 8:15,21.8,53,15.6,13.6
 2003/04/05, 8:30,21.9,52,15.5,13.7
 2003/04/05, 8:45,22,50.5,15.4,13.8
 2003/04/05, 9:00,22.2,49,15.3,13.9
 2003/04/05, 9:15,22.2,49.5,15.2,13.9
 2003/04/05, 9:30,22.4,48,15.1,14.1
 2003/04/05, 9:45,22.5,48.5,15,14.1
 2003/04/05,10:00,22.5,49,15,14.2
 2003/04/05,10:15,22.5,49.5,14.9,14.4
 2003/04/05,10:30,22.7,52,15,14.4
 2003/04/05,10:45,22.8,50,15.1,14.5
 2003/04/05,11:00,22.9,50,15,14.6
 2003/04/05,11:15,22.9,48,15,14.7
 2003/04/05,11:30,22.9,47,14.9,14
 2003/04/05,11:45,22.9,48.5,14.9,13.8
 2003/04/05,12:00,22.9,51,14.9,13.9
 2003/04/05,12:15,23,54.5,14.8,13.9
 2003/04/05,12:30,23.3,55,14.8,14.1
 2003/04/05,12:45,23.2,56.5,14.9,14.2
 2003/04/05,13:00,23.2,56,15.1,14.3
 2003/04/05,13:15,23.2,57.5,15.1,14.4
 2003/04/05,13:30,23.2,56,15.2,14.5
 2003/04/05,13:45,23,56.5,15.2,14.6
 2003/04/05,14:00,22.9,57,15.3,14.6
 2003/04/05,14:15,22.9,57.5,15.3,14.7
 2003/04/05,14:30,22.7,58,15.3,14.8
 2003/04/05,14:45,22.6,58,15.3,14.9
 2003/04/05,15:00,22.4,58,15.3,15
 2003/04/05,15:15,22.4,59,15.3,15.1
 2003/04/05,15:30,22.2,59,15.3,15.3
 2003/04/05,15:45,22,59,15.3,15.4
 2003/04/05,16:00,21.9,60,15.3,15.5
 2003/04/05,16:15,21.9,60,15.3,15.6
 2003/04/05,16:30,21.7,60,15.3,15.7
 2003/04/05,16:45,21.6,60,15.2,14.6
 2003/04/05,17:00,21.6,60,15.1,13.9
 2003/04/05,17:15,21.5,60,14.9,14
 2003/04/05,17:30,21.3,60,14.9,14.1
 2003/04/05,17:45,21.4,60.5,14.8,14.2
 2003/04/05,18:00,21.6,64,14.7,14.3
 2003/04/05,18:15,21.4,64,14.6,13.9
 2003/04/05,18:30,21.3,65,14.5,14
 2003/04/05,18:45,21.1,64,14.4,14.1
 2003/04/05,19:00,21,63,14.4,14.2
 2003/04/05,19:15,21,63.5,14.4,14.3
 2003/04/05,19:30,21,65,14.3,12.6
 2003/04/05,19:45,21,67,14.2,12.6
 2003/04/05,20:00,21,68,14.2,12.8
 2003/04/05,20:15,21,67,14.2,12.9
 2003/04/05,20:30,21,68,14.2,13
 2003/04/05,20:45,21.2,66.5,14.1,13.1
 2003/04/05,21:00,21.5,65,14.1,13.7
 2003/04/05,21:15,21.5,66,14.1,13.9
 2003/04/05,21:30,21.6,65,14.2,14
 2003/04/05,21:45,21.6,65,14.2,13.6
 2003/04/05,22:00,21.5,65,14.2,13.7
 2003/04/05,22:15,21.5,65,14.1,13.8
 2003/04/05,22:30,21.4,66,14.1,13.9
 2003/04/05,22:45,21.5,65.5,14.1,14
 2003/04/05,23:00,21.5,66,14,13.9
 2003/04/05,23:15,21.5,65,13.9,13.4
 2003/04/05,23:30,21.5,65,13.7,13.5
 2003/04/05,23:45,21.5,65,13.6,13.6
 2003/04/06, 0:00,21.5,65,13.5,13.7
 2003/04/06, 0:15,21.5,65,13.4,13.8
 2003/04/06, 0:30,21.4,65,13.4,13.9
 2003/04/06, 0:45,21.4,65.5,13.3,14
 2003/04/06, 1:00,21.4,65,13.3,14.1
 2003/04/06, 1:15,21.4,65,13.2,14.1
 2003/04/06, 1:30,21.4,66,13.1,14.2
 2003/04/06, 1:45,21.4,66,13.1,13.9
 2003/04/06, 2:00,21.4,68,13.1,14
 2003/04/06, 2:15,21.4,68,13.1,14.1
 2003/04/06, 2:30,21.5,68,13,13.7
 2003/04/06, 2:45,21.6,67,13,13.9
 2003/04/06, 3:00,21.6,67,13,13.9
 2003/04/06, 3:15,21.8,68,12.9,14
 2003/04/06, 3:30,21.8,68,12.9,14.1
 2003/04/06, 3:45,21.7,68,12.9,14.1
 2003/04/06, 4:00,21.6,68,12.8,14.2
 2003/04/06, 4:15,21.8,68.5,12.8,14.3
 2003/04/06, 4:30,21.8,68,12.7,14.4
 2003/04/06, 4:45,21.8,69,12.7,14.4
 2003/04/06, 5:00,21.7,70,12.7,14.5
 2003/04/06, 5:15,21.9,71,12.7,14.6
 2003/04/06, 5:30,21.9,72,12.7,14.6
 2003/04/06, 5:45,22,73,12.6,14.2
 2003/04/06, 6:00,21.9,72,12.6,13.7
 2003/04/06, 6:15,21.8,71,12.6,13.9
 2003/04/06, 6:30,21.7,71,12.6,13.9
 2003/04/06, 6:45,21.6,71,12.6,14
 2003/04/06, 7:00,21.5,71,12.6,14.1
 2003/04/06, 7:15,21.5,71,12.7,13.8
 2003/04/06, 7:30,21.3,71,12.7,13.9
 2003/04/06, 7:45,21.3,71,12.8,13.4
 2003/04/06, 8:00,21.2,72,13.1,13.3
 2003/04/06, 8:15,21.1,72,13.2,13.4
 2003/04/06, 8:30,21,72,13.4,13.5
 2003/04/06, 8:45,21,72,13.6,12.6
 2003/04/06, 9:00,21,72,13.7,12.7
 2003/04/06, 9:15,20.9,73,13.8,12.8
 2003/04/06, 9:30,20.9,73,13.8,12.9
 2003/04/06, 9:45,20.9,73,13.6,12.9
 2003/04/06,10:00,20.8,74,13.6,13.1
 2003/04/06,10:15,20.9,74.5,13.6,13.1
 2003/04/06,10:30,21.1,78,13.9,13.2
 2003/04/06,10:45,21.2,80,13.9,13.3
 2003/04/06,11:00,21.4,78,13.9,13.3
 2003/04/06,11:15,21.5,78.5,13.9,13.4
 2003/04/06,11:30,21.4,80,14,13.5
 2003/04/06,11:45,21.4,79,13.9,13.5
 2003/04/06,12:00,21.3,79,13.9,13.6
 2003/04/06,12:15,21.3,79.5,14.3,13.3
 2003/04/06,12:30,21.3,79,14.5,13.4
 2003/04/06,12:45,21.3,78.5,14.6,12.8
 2003/04/06,13:00,21.2,79,14.6,12.6
 2003/04/06,13:15,21.2,79,14.6,12.6
 2003/04/06,13:30,21.2,79,14.7,12.8
 2003/04/06,13:45,21.2,80.5,14.7,12.9
 2003/04/06,14:00,21.1,81,14.7,13
 2003/04/06,14:15,21,81.5,14.9,13.1
 2003/04/06,14:30,21,81,15,13.2
 2003/04/06,14:45,21,81.5,15.1,13.2
 2003/04/06,15:00,21,81,15.3,13.4
 2003/04/06,15:15,21.1,79.5,15.4,13.4
 2003/04/06,15:30,21.2,79,15.6,13.4
 2003/04/06,15:45,21.2,78.5,15.8,13.6
 2003/04/06,16:00,21.2,78,15.9,13.6
 2003/04/06,16:15,21.2,78,16.1,13.8
 2003/04/06,16:30,21.2,78,16.3,14.3
 2003/04/06,16:45,21.3,78,16.4,14.3
 2003/04/06,17:00,21.2,78,16.4,14.4
 2003/04/06,17:15,21.2,78,16.4,14.4
 2003/04/06,17:30,21.1,78,16.4,14.5
 2003/04/06,17:45,21.1,79,16.5,14.6
 2003/04/06,18:00,21.2,79,16.7,14.7
 2003/04/06,18:15,21.1,79.5,16.9,14.8
 2003/04/06,18:30,21.1,79,16.6,14.8
 2003/04/06,18:45,21.3,80,16.5,14.9
 2003/04/06,19:00,21.4,80,16.4,15
 2003/04/06,19:15,21.5,79,16.4,15.1
 2003/04/06,19:30,21.6,80,16.3,13.9
 2003/04/06,19:45,21.6,80,16.2,14
 2003/04/06,20:00,21.6,80,16.2,14.7
 2003/04/06,20:15,21.6,80,16.2,13.6
 2003/04/06,20:30,21.6,79,16.2,13
 2003/04/06,20:45,21.8,80.5,16.2,12.9
 2003/04/06,21:00,22,81,16.2,13
 2003/04/06,21:15,22.1,80.5,16.2,13.2
 2003/04/06,21:30,22,81,16.3,13.4
 2003/04/06,21:45,22.1,82,16.2,13.6
 2003/04/06,22:00,22.1,80,16.2,13.7
 2003/04/06,22:15,21.9,79,16.2,13.8
 2003/04/06,22:30,21.8,79,16.1,13.9
 2003/04/06,22:45,21.6,78.5,16.1,14
 2003/04/06,23:00,21.6,78,16,14.1
 2003/04/06,23:15,21.5,78,16,14.2
 2003/04/06,23:30,21.4,78,15.9,14.3
 2003/04/06,23:45,21.3,78,15.9,14.2
 2003/04/07, 0:00,21.2,78,15.9,14
 2003/04/07, 0:15,21.2,78,15.9,14.1
 2003/04/07, 0:30,21.1,78,15.9,14.2
 2003/04/07, 0:45,21.1,78,15.9,14.3
 2003/04/07, 1:00,21.1,78,15.8,14.4
 2003/04/07, 1:15,21,78,15.8,14.5
 2003/04/07, 1:30,21.1,77,15.8,14.6
 2003/04/07, 1:45,21,77.5,15.7,14.7
 2003/04/07, 2:00,21,79,15.7,14.8
 2003/04/07, 2:15,21,80,15.6,14.9
 2003/04/07, 2:30,21.1,84,15.6,15
 2003/04/07, 2:45,21.4,82,15.5,15.1
 2003/04/07, 3:00,21.3,81,15.5,15.2
 2003/04/07, 3:15,21.5,80.5,15.4,15.3
 2003/04/07, 3:30,21.5,83,15.3,15.4
 2003/04/07, 3:45,21.6,81.5,15.3,15.5
 2003/04/07, 4:00,21.7,81,15.2,15.6
 2003/04/07, 4:15,21.8,80.5,15.2,15.7
 2003/04/07, 4:30,22.1,79,15.1,15.8
 2003/04/07, 4:45,22.4,78,15.1,15.9
 2003/04/07, 5:00,22.6,78,15,16
 2003/04/07, 5:15,22.8,78,14.9,16
 2003/04/07, 5:30,22.9,77,14.9,16.1
 2003/04/07, 5:45,23.1,77.5,14.9,16.2
 2003/04/07, 6:00,23.2,77,14.8,16.3
 2003/04/07, 6:15,23.4,76.5,14.8,14.8
 2003/04/07, 6:30,23.5,76,14.8,14.9
 2003/04/07, 6:45,23.6,76.5,14.8,13.8
 2003/04/07, 7:00,23.8,77,14.9,13.5
 2003/04/07, 7:15,23.8,77.5,15,13.6
 2003/04/07, 7:30,23.9,78,15.1,13.2
 2003/04/07, 7:45,24,77,15.1,13.1
 2003/04/07, 8:00,24,77,15.2,13.2
 2003/04/07, 8:15,23.9,77,15.3,13.2
 2003/04/07, 8:30,23.9,77,15.4,13.4
 2003/04/07, 8:45,23.9,77,15.4,13.5
 2003/04/07, 9:00,23.9,76,15.5,13.6
 2003/04/07, 9:15,24,76,15.6,13.8
 2003/04/07, 9:30,24,75,15.7,13.8
 2003/04/07, 9:45,24,74.5,15.9,13.9
 2003/04/07,10:00,24,73,16,14
 2003/04/07,10:15,24,68.5,16.1,14.1
 2003/04/07,10:30,24,65,16.3,14.2
 2003/04/07,10:45,24,62.5,16.5,14.4
 2003/04/07,11:00,24,66,16.6,14.4
 2003/04/07,11:15,23.8,64.5,16.8,14.6
 2003/04/07,11:30,24,62,16.9,14.6
 2003/04/07,11:45,24,64.5,17,14.8
 2003/04/07,12:00,24,62,17,14.5
 2003/04/07,12:15,24,63,17,14.6
 2003/04/07,12:30,24,64,16.9,14.5
 2003/04/07,12:45,24,64.5,17,14.6
 2003/04/07,13:00,23.9,65,17.2,14.7
 2003/04/07,13:15,23.8,66.5,17.2,14.8
 2003/04/07,13:30,24,71,17.2,14.9
 2003/04/07,13:45,24.1,72,17.3,15
 2003/04/07,14:00,24.1,73,17.3,15.1
 2003/04/07,14:15,24,74,17.4,15.2
 2003/04/07,14:30,24.1,75,17.4,15.3
 2003/04/07,14:45,24.1,75.5,17.5,15.5
 2003/04/07,15:00,24.2,76,17.6,15.4
 2003/04/07,15:15,24.1,76,17.6,15.6
 2003/04/07,15:30,24,77,17.8,15.6
 2003/04/07,15:45,24,76.5,17.8,15.8
 2003/04/07,16:00,23.9,77,17.9,15.9
 2003/04/07,16:15,23.8,77.5,17.9,15.9
 2003/04/07,16:30,23.8,77,17.9,16.1
 2003/04/07,16:45,23.8,76.5,18,16.2
 2003/04/07,17:00,23.7,77,18.2,16.3
 2003/04/07,17:15,23.6,77.5,18.2,16.4
 2003/04/07,17:30,23.5,78,18.4,16.5
 2003/04/07,17:45,23.5,78,18.5,16.6
 2003/04/07,18:00,23.4,78,18.5,16.7
 2003/04/07,18:15,23.4,76.5,18.6,16.9
 2003/04/07,18:30,23.3,76,18.6,16.9
 2003/04/07,18:45,23.4,75.5,18.6,17